This is the latest recevied weather packets stored in our database for station/object OE7SBH-WX. If no packets are shown the sender has not sent any weather packets the latest 10 day(s).
| Time | Temp. | Humidity | Pressure | Rain* | Wind** | Luminosity | Snow |
|---|---|---|---|---|---|---|---|
| 1778167834 | 15.56° C | 65% | 1019.1 hPa | 0 mm | - | 246 W/m² | - |
| 1778166021 | 16.11° C | 64% | 1019.1 hPa | 0 mm | - | 283 W/m² | - |
| 1778165430 | 15.56° C | 65% | 1019.1 hPa | 0 mm | - | 495 W/m² | - |
| 1778163029 | 13.89° C | 71% | 1019.3 hPa | 0 mm | - | 296 W/m² | - |
| 1778160033 | 14.44° C | 67% | 1019.2 hPa | 0 mm | - | 177 W/m² | - |
| 1778159424 | 15.56° C | 66% | 1019.1 hPa | 0 mm | - | 348 W/m² | - |
| 1778158821 | 15.56° C | 63% | 1019 hPa | 0 mm | - | 287 W/m² | - |
| 1778143816 | 12.22° C | 74% | 1019.1 hPa | 0 mm | - | 125 W/m² | - |
| 1778143253 | 12.22° C | 74% | 1018.9 hPa | 0 mm | - | 107 W/m² | - |
| 1778140231 | 12.78° C | 73% | 1018.5 hPa | 0 mm | - | 232 W/m² | - |
| 1778137221 | 11.67° C | 75% | 1018.2 hPa | 0 mm | - | 123 W/m² | - |
| 1778135429 | 10.56° C | 79% | 1018.3 hPa | 0 mm | - | 86 W/m² | - |
| 1778132444 | 10° C | 82% | 1018 hPa | 0 mm | - | 64 W/m² | - |
| 1778130631 | 9.44° C | 83% | 1017.8 hPa | 0 mm | - | 28 W/m² | - |
| 1778130052 | 9.44° C | 83% | 1017.8 hPa | 0 mm | - | 20 W/m² | - |
| 1778125221 | 8.33° C | 85% | 1016.9 hPa | 0 mm | - | 1 W/m² | - |
| 1778124628 | 8.33° C | 86% | 1016.8 hPa | 0 mm | - | 0 W/m² | - |
| 1778121623 | 8.89° C | 84% | 1016.7 hPa | 0 mm | - | 0 W/m² | - |
| 1778115029 | 9.44° C | 82% | 1016.3 hPa | 0 mm | - | 0 W/m² | - |
| 1778114424 | 9.44° C | 82% | 1016 hPa | 0 mm | - | 0 W/m² | - |
| 1778111429 | 11.11° C | 75% | 1015.9 hPa | 0 mm | - | 0 W/m² | - |
| 1778110235 | 11.11° C | 76% | 1016 hPa | 0 mm | - | 0 W/m² | - |
| 1778109632 | 11.11° C | 76% | 1015.9 hPa | 0 mm | - | 0 W/m² | - |
| 1778108440 | 11.11° C | 75% | 1015.9 hPa | 0 mm | - | 0 W/m² | - |
| 1778106632 | 12.22° C | 69% | 1015.6 hPa | 0 mm | - | 0 W/m² | - |
* Rain latest hour (hover to see other rain measurements)
** Current wind speed in m/s (hover to see current wind gust speed)